Starlink 36653

operational
NORAD ID: 67842 Int'l Des: 2026-033 Owner: SPXS Country: US Constellation: starlink
LEOCIRCULAR

关于 Starlink 36653

正在加载描述...

实时位置

正在加载3D地球...

即将过境

高度历史

Altitude vs Time

uPlot chart will show altitude changes over time

两行轨道根数

1 67842U 26033X 26093.52567598 .00031955 00000-0 11644-2 0 9999
2 67842 43.0002 126.6743 0001459 258.1046 101.9642 15.27617791 8470
Epoch: Apr 3, 2026 • Age: 16 hours

当前状态

高度 482.3 km
速度 7.63 km/s
星下点 12.86°N, 121.32°W
发射日期 Feb 16, 2026
运行时间 0.1 years
类型 internet

技术详情

分类 Payload
质量 575.00 kg
干质量 530.00 kg
总质量 575.00 kg
长度 0.30 m
直径 4.10 m
跨度 29.00 m
形状 Box + pan
制造商 SPXS
平台类型 Starlink V2MO
阶段状态 In Orbit
所有者/国家 SPXS/US

大型星座

Loading constellations...